星链-5088 (STARLINK-5088 )

导读 | 星芒AI

STARLINK-5088 是 SpaceX Starlink 项目中的一颗低轨通信卫星,属于第 11 批部署的星链卫星群。该卫星于 2022 年发射,运行在约 550 公里的轨道高度,旨在为全球提供高速互联网服务。作为星链网络的一部分,STARLINK-5088 采用先进推进系统和激光通信技术,提高连接稳定性和数据传输效率,支持偏远地区互联网接入,助力全球数字基础设施建设。

基本信息
目录编号:
54000
目录名称:
STARLINK-5088
国际标识:
2022-125AN
轨道中心:
EARTH
卫星名称:
星链-5088
卫星全名:
星链-5088 (STARLINK-5088 )
卫星状态:
在轨 (已飞行1173 天)
发射日期:
2022-10-05 UTC
国别 :
美国 (US)
星等 :
--
轨道信息
数据来源 国际轨道数据 AOE轨道数据
星历时间 2025-12-21T06:52:17+0800
11小时前
查看轨道信息
2025-12-16T12:00:00+0800
5天前
查看轨道信息
半长轴 6917.902km 6917.839km
偏心率 0.0001482 0.0001284
轨道倾角 53.217° 53.216°
近地点辐角 88.510° 74.916°
升交点赤经 197.771° 219.260°
平近点角 271.606° 192.743°
近地点 538.739km 538.815km
远地点 540.791km 540.593km
周期 95.438分钟 95.437分钟
每日圈数 15.088332 15.088537
详细信息
固有亮度:
5
最大亮度:
2.5
卫星平台:
Starlink v1.5
覆盖范围:
全球
运营商:
太空探索技术公司
运营商所在国:
美国
制造商(研发单位):
太空探索技术公司
制造商所在国:
美国
使用方式:
暂无
卫星简介
星链(Starlink)计划是由太空探索技术公司(SpaceX)提出的一个巨型低轨卫星互联网星座项目,计划在2019年至2024年间在太空搭建由约1.2万颗卫星组成的“星链”网络,其中1584颗将部署在地球上空550千米处的近地轨道,并从2020年开始工作。该卫星仍在工作。
2D轨道图
3D轨道图
轨道高度分析图
轨道倾角分析图
轨道综合分析图
查看轨道综合分析图